Regional Weather Roundup
Issued by NWS

Home | Current Version | Previous Version | Graphics & Text | Print | Product List | Glossary On
Versions: 1 2 3 4 5 6 7 8 9 10 11 12 13 14 15 16 17 18 19 20 21 22 23 24 25 26 27 28 29 30 31 32 33 34 35 36 37 38 39 40 41 42 43 44 45 46 47 48 49 50
000
ASUS45 KTFX 261710
RWRMT
MONTANA REGIONAL WEATHER ROUNDUP
NATIONAL WEATHER SERVICE GREAT FALLS MT
1000 AM MST SUN FEB 26 2017

NOTE: "FAIR" INDICATES FEW OR NO CLOUDS BELOW 12000 FEET WITH NO
SIGNIFICANT WEATHER AND/OR OBSTRUCTIONS TO VISIBILITY.

MTZ001>007-043-261800-
WEST OF THE DIVIDE

CITY           SKY/WX    TMP DP  RH WIND       PRES   REMARKS
KALISPELL      LGT SNOW  26  23  88 SE6       29.72S FOG     WCI  19
MISSOULA       CLOUDY    28  23  81 E10       29.74S WCI  19
BUTTE          CLOUDY    22   9  57 S5        29.67S
MULLAN PASS    LGT SNOW  16  15  96 CALM      29.56S FOG
ANACONDA         N/A     25  10  54 S13G18    29.69R WCI  13
DEER LODGE       N/A     25  16  68 S8        29.72R WCI  16
EUREKA           N/A     27  23  86 NW3       29.73S VSB 1
HAMILTON         N/A     28  18  64 S9        29.71S WCI  20
LIBBY            N/A     27  25  93 CALM      29.71S VSB 3/4
PLAINS           N/A     28  23  81 CALM      29.76R
RONAN            N/A     28  24  85 CALM      29.77R
THOMPSON FALLS   N/A     28  23  81 NE13      29.78S WCI  17
$$

MTZ008-052>055-261800-
SOUTHWEST MONTANA

CITY           SKY/WX    TMP DP  RH WIND       PRES   REMARKS
BOZEMAN        CLOUDY    27  15  61 NE8       29.74R WCI  19
DILLON         CLOUDY    25   7  46 SW12      29.70S WCI  14
W YELLOWSTONE  CLOUDY    14   5  67 SW12G18   29.75R HAZE    WCI   0
ENNIS          MOSUNNY   23   7  50 S17G25    29.78S WCI   9
THREE FORKS      N/A     27  27 100 S23       29.75F WCI  13
$$

MTZ009-010-012-014-046-048-049-054-261800-
EAST SLOPES AND CENTRAL MONTANA

CITY           SKY/WX    TMP DP  RH WIND       PRES   REMARKS
CUT BANK       LGT SNOW  19  13  77 N16       29.78R WCI   4
GREAT FALLS    LGT SNOW  23  19  85 NE12      29.74R VSB 3/4 WCI  12
MALMSTROM AFB  LGT SNOW  21  21 100 NE12      29.76R WCI   9
HELENA         CLOUDY    27  22  81 W5        29.72S
AUGUSTA        LGT SNOW  20  19  96 NE13      29.71R VSB 5/8 WCI   7
BOWMANS CRNR     N/A     24  15  68 S6        29.67S WCI  17
CHOTEAU        FOG       19  18  93 N16       29.77R VSB 1/2 WCI   5
CONRAD           N/A     20  18  92 N13       29.81R VSB 1   WCI   7
POWER          LGT SNOW  20  17  87 N14       29.73R WCI   7
RAYNESFORD     LGT SNOW  22  20  89 N5        29.72S VSB 7/8
ULM            LGT SNOW  24  22  89 MISG      29.73S
$$

MTZ011-013-016-021-045-047-050-051-261800-
NORTH CENTRAL MONTANA

CITY           SKY/WX    TMP DP  RH WIND       PRES   REMARKS
HAVRE          CLOUDY    24  14  65 N12       29.81R WCI  13
LEWISTOWN      LGT SNOW  22  18  85 W6        29.72R FOG     WCI  14
N BAR RANCH    LGT SNOW  21  16  79 NW9       29.73R WCI  11
CHINOOK          N/A     25  12  58 NW10      29.82R WCI  15
DENTON         PTSUNNY   22  19  86 N6        29.71S WCI  15
FORT BENTON      N/A     27  18  69 MISG      29.80R
GEYSER         SNOWSHWR  21  17  84 NE9       29.71S WCI  11
GRASS RANGE    PTSUNNY   24  17  75 W12       29.70R WCI  13
JUDITH GAP     SNOWSHWR  21  18  88 N6        29.69S WCI  13
ROY            PTSUNNY   23  17  77 MISG      29.73R
STANFORD       LGT SNOW  22  19  89 N10       29.70R FOG     WCI  11
WINIFRED       PTSUNNY   22  17  81 NW8       29.73R WCI  13
$$

MTZ017>020-022>027-061-062-261800-
NORTHEAST MONTANA

CITY           SKY/WX    TMP DP  RH WIND       PRES   REMARKS
GLASGOW        CLOUDY    21  16  81 W8        29.76R WCI  11
JORDAN           N/A     28  21  75 NW16      29.74R WCI  16
SIDNEY         FLURRIES  23  17  78 NW5       29.74R
WOLF POINT     CLOUDY    19  14  81 W3        29.77R
PLENTYWOOD       N/A     16  10  79 W3        29.73R
POPLAR           N/A     19  14  79 CALM      29.76R
SCOBEY           N/A     17   8  67 SW3       29.72R
$$

MTZ028>42-056>058-261800-
SOUTHCENTRAL AND SOUTHEAST MONTANA

CITY           SKY/WX    TMP DP  RH WIND       PRES   REMARKS
BAKER          LGT SNOW  29  22  75 W18G30    29.70R WCI  16
BILLINGS       PTSUNNY   29  12  49 SW10      29.75R WCI  20
LIVINGSTON     SUNNY     25   8  48 SW33G44   29.69R WCI   7
MILES CITY     PTSUNNY   33  18  53 NW23G29   29.73R WCI  21
BIG TIMBER     PTSUNNY   25  10  54 W9G16     29.74S WCI  15
EKALAKA          N/A     29  17  60 W15       29.70S WCI  18
FORSYTH          N/A     34  18  51 W16       29.75R WCI  23
HARLOWTON        N/A     27  18  67 W22       29.69S WCI  13
LAUREL           N/A     27  11  51 S6        29.75R WCI  21
ROUNDUP          N/A     31  12  45 NW8       29.68R WCI  24
$$

REGIONAL REPORTS...DAKOTAS

CITY           SKY/WX    TMP DP  RH WIND       PRES   REMARKS
WILLISTON      CLOUDY    19  13  77 CALM      29.75R
MINOT          SUNNY     15   8  73 SW7       29.77R WCI   5
DICKINSON      MOSUNNY   26  19  74 W14       29.66S WCI  14
BEACH            N/A    N/A N/A N/A MISG        N/A
CROSBY           N/A     18  16  93 SW9       29.77R WCI   6
TIOGA          LGT SNOW  14  14 100 CALM      29.74S
WATFORD CITY   PTSUNNY   18  14  86 SE3       29.73R
BISMARCK       CLOUDY    18  11  74 SW5       29.80R
GRAND FORKS    SUNNY     13   1  59 W6        29.86R WCI   4
FARGO          SUNNY     16   9  74 NW7       29.86R WCI   6
BUFFALO SD       N/A     31  21  66 W22G30    29.65R WCI  18
RAPID CITY     SUNNY     34  12  40 W5        29.77F
$$

REGIONAL REPORTS...WYOMING/IDAHO/WASHINGTON

CITY           SKY/WX    TMP DP  RH WIND       PRES   REMARKS
GILLETTE       SUNNY     27  10  49 SW9       29.75R WCI  18
SHERIDAN       CLOUDY    31  11  43 SE9       29.75R WCI  23
BUFFALO WY     CLOUDY    25   8  48 S3        29.73R
CODY           CLOUDY    28   3  34 W12G18    29.73F WCI  18
YELLOWSTONE LA   N/A     11   3  70 VRB5      29.70F
IDAHO FALLS    CLOUDY    17  13  84 CALM      29.86F
SALMON         CLOUDY    28  10  47 S10G20    29.74F WCI  19
BOISE          CLOUDY    34  17  50 SE17      29.82S WCI  23
SPOKANE        LGT SNOW  29  27  92 SE3       29.72S FOG
$$

REGIONAL REPORTS...ALBERTA

CITY           SKY/WX    TMP DP  RH WIND       PRES   REMARKS
EDMONTON       CLOUDY     7   0  72 N14G22    29.93R WCI -10
CALGARY        SNOW      14  10  85 N8        29.81R VSB 1/2 WCI   3
LETHBRIDGE     LGT SNOW  18  14  86 NW10      29.86R FOG     WCI   6
MEDICINE HAT   CLOUDY    19  14  79 NW9       29.84R WCI   9
WATERTON GATE    N/A     16  12  86 N10         N/A  WCI   3
CARDSTON         N/A     19  14  79 N7          N/A  WCI  10
MILK RIVER       N/A     18  12  79 N16         N/A  WCI   3
$$

REGIONAL REPORTS...SASKATCHEWAN

CITY           SKY/WX    TMP DP  RH WIND       PRES   REMARKS
SWIFT CURRENT  LGT SNOW  16  14  93 NW20      29.72R WCI  -1
REGINA         MOSUNNY   19  14  79 NW15      29.71R WCI   5
SASKATOON      FLURRIES  16   9  73 N7        29.77R WCI   6
CYPRESS HILLS    N/A     10   7  85 NW12G22     N/A  WCI  -4
VAL MARIE        N/A     21  14  73 N16         N/A  WCI   7
$$



USA.gov is the U.S. government's official web portal to all federal, state and local government web resources and services.